K1BES Weather Reports


time (UTC)temp
C
wind
direction
speed
KPH
gust
KPH
rain 1hr
cm
rain 24hr
cm
rain mn
cm
humidity
%
barometer
mb
20260503053038 23 35 0.0 1.6 0.00 0.00 0.00 88 1016.2
20260503052535 23 35 1.6 3.2 0.00 0.00 0.00 88 1016.2
20260503052031 23 243 3.2 3.2 0.00 0.00 0.00 88 1016.4
20260503051527 23 44 0.0 1.6 0.00 0.00 0.00 88 1016.4
20260503051025 23 28 0.0 1.6 0.00 0.00 0.00 88 1016.5
20260503050520 23 40 0.0 1.6 0.00 0.00 0.00 88 1016.5
20260503050018 23 36 0.0 1.6 0.00 0.00 0.00 88 1016.4
20260503045515 23 34 0.0 3.2 0.00 0.00 0.00 89 1016.2
20260503045012 23 17 1.6 3.2 0.00 0.00 0.00 89 1016.3
20260503044509 23 30 3.2 3.2 0.00 0.00 0.00 89 1016.3
20260503044006 23 39 0.0 1.6 0.00 0.00 0.00 89 1016.1
20260503043502 23 42 0.0 8.0 0.00 0.00 0.00 89 1016.4
20260503042959 23 323 0.0 4.8 0.00 0.00 0.00 89 1016.6
20260503042455 22 87 1.6 1.6 0.00 0.00 0.00 89 1016.6
20260503041952 22 345 1.6 4.8 0.00 0.00 0.00 89 1016.4
20260503041449 22 33 0.0 3.2 0.00 0.00 0.00 90 1016.5
20260503040947 22 39 0.0 1.6 0.00 0.00 0.00 91 1016.5
20260503040444 22 39 0.0 3.2 0.00 0.00 0.00 91 1016.5
20260503035941 22 23 1.6 4.8 0.00 0.97 0.97 91 1016.4
20260503035437 22 36 0.0 3.2 0.00 0.97 0.97 91 1016.4
20260503034936 22 0 1.6 3.2 0.00 0.97 0.97 92 1016.4
20260503034433 22 21 0.0 3.2 0.00 0.97 0.97 92 1016.3
20260503033930 22 36 1.6 3.2 0.00 0.97 0.97 93 1016.3
20260503033427 22 44 1.6 3.2 0.00 0.97 0.97 94 1015.9
20260503032925 22 284 1.6 1.6 0.00 0.97 0.97 94 1015.8
20260503032423 22 16 1.6 1.6 0.00 0.97 0.97 94 1015.8
20260503031920 22 35 0.0 1.6 0.00 0.97 0.97 94 1015.6
20260503031418 22 34 0.0 1.6 0.00 0.97 0.97 95 1015.4
20260503030914 22 15 0.0 3.2 0.00 0.97 0.97 95 1015.3
20260503030411 22 37 0.0 1.6 0.00 0.97 0.97 95 1015.3
20260503025908 22 36 0.0 1.6 0.00 0.97 0.97 95 1015.6
20260503025405 21 1 1.6 3.2 0.00 0.97 0.97 95 1015.2
20260503024902 21 43 1.6 3.2 0.00 0.97 0.97 95 1015.2
20260503024358 21 270 0.0 3.2 0.00 0.97 0.97 95 1015.4
20260503023856 21 19 0.0 1.6 0.00 0.97 0.97 95 1015.2
20260503023353 21 16 0.0 3.2 0.00 0.97 0.97 95 1015.1
20260503022850 21 22 0.0 1.6 0.00 0.97 0.97 95 1015.2
20260503022349 22 34 0.0 1.6 0.00 0.97 0.97 95 1014.8
20260503021846 22 30 0.0 0.0 0.00 0.97 0.97 96 1014.6
20260503021342 22 44 0.0 0.0 0.00 0.97 0.97 96 1014.9
20260503020840 22 33 0.0 1.6 0.00 0.97 0.97 96 1014.8
20260503020338 21 42 0.0 1.6 0.18 0.97 0.97 96 1014.6
20260503015834 21 32 0.0 1.6 0.36 0.97 0.97 96 1014.8
20260503015331 21 348 1.6 3.2 0.30 0.94 0.94 96 1015.2
20260503014827 21 27 0.0 1.6 0.13 0.91 0.91 96 1015.1
20260503014325 22 30 1.6 1.6 0.18 0.89 0.89 96 1015.3
20260503013822 22 35 0.0 1.6 0.18 0.89 0.89 96 1015.6
20260503013319 22 37 0.0 1.6 0.00 0.86 0.86 96 1015.3
20260503012816 22 29 1.6 1.6 0.00 0.86 0.86 96 1015.5
20260503012314 22 36 0.0 0.0 0.00 0.86 0.86 96 1014.7
20260503011810 22 33 0.0 1.6 0.00 0.86 0.86 96 1014.3
20260503011307 22 38 0.0 0.0 0.13 0.86 0.86 96 1014.5
20260503010803 22 30 0.0 4.8 0.13 0.86 0.86 96 1014.1
20260503010301 22 332 1.6 4.8 0.00 0.84 0.84 96 1013.9
20260503005758 22 33 0.0 1.6 0.00 0.84 0.84 96 1014.0
20260503005255 22 53 1.6 3.2 0.00 0.84 0.84 96 1013.9
20260503004751 22 41 0.0 1.6 0.00 0.84 0.84 96 1014.5
20260503004249 22 38 0.0 0.0 0.00 0.84 0.84 96 1014.4
20260503003746 22 40 0.0 0.0 0.18 0.84 0.84 96 1014.1
20260503003243 22 43 0.0 0.0 0.18 0.84 0.84 96 1014.1
20260503002740 22 32 0.0 0.0 0.30 0.81 0.81 96 1014.2
20260503002237 22 49 0.0 0.0 0.30 0.79 0.79 96 1013.9
20260503001733 22 39 0.0 0.0 0.00 0.74 0.74 96 1014.4
20260503001229 22 47 0.0 1.6 0.00 0.74 0.74 96 1014.1
20260503000728 22 34 0.0 0.0 0.00 0.74 0.74 96 1013.8
20260503000225 22 43 0.0 0.0 0.00 0.74 0.74 96 1013.4
20260502235721 22 41 0.0 0.0 0.00 0.74 0.74 96 1013.7
20260502235219 22 45 0.0 0.0 0.00 0.74 0.74 96 1013.5
20260502234715 22 39 0.0 0.0 0.00 0.74 0.74 96 1013.7
20260502234213 22 38 0.0 0.0 0.00 0.74 0.74 96 1013.8
20260502233708 22 46 0.0 0.0 0.00 0.74 0.74 96 1013.9
20260502233205 22 41 0.0 0.0 0.00 0.74 0.74 96 1014.2
20260502232701 22 36 0.0 0.0 0.00 0.74 0.74 95 1013.9
20260502232159 22 36 0.0 0.0 0.00 0.74 0.74 95 1014.0
20260502231655 22 39 0.0 0.0 0.00 0.74 0.74 95 1014.3
20260502231153 22 28 0.0 1.6 0.00 0.74 0.74 95 1014.2
20260502230651 22 41 0.0 0.0 0.00 0.74 0.74 95 1014.1
20260502230150 22 42 0.0 0.0 0.00 0.74 0.74 95 1014.2
20260502225644 22 39 0.0 1.6 0.00 0.74 0.74 95 1014.1
20260502225142 22 41 0.0 0.0 0.00 0.74 0.74 95 1014.0
20260502224638 22 43 0.0 0.0 0.00 0.74 0.74 95 1014.0
20260502224135 22 41 0.0 0.0 0.00 0.74 0.74 95 1013.8
20260502223633 22 37 0.0 0.0 0.18 0.74 0.74 95 1014.1
20260502223131 22 39 0.0 0.0 0.79 0.74 0.74 95 1014.0
20260502222628 22 33 0.0 1.6 0.48 0.69 0.69 94 1013.6
20260502222125 22 46 1.6 3.2 0.00 0.61 0.61 94 1013.3
20260502221620 22 32 0.0 1.6 0.00 0.61 0.61 94 1013.8
20260502221118 22 12 1.6 4.8 0.00 0.61 0.61 94 1013.8
20260502220614 22 3 1.6 8.0 0.00 0.61 0.61 94 1013.8
20260502220110 22 35 3.2 8.0 0.00 0.61 0.61 94 1013.8
20260502215607 22 33 1.6 4.8 0.00 0.61 0.61 94 1014.0
20260502215104 22 7 4.8 4.8 0.00 0.61 0.61 94 1013.7
20260502214601 22 348 4.8 8.0 0.00 0.61 0.61 94 1013.6
20260502214058 22 30 3.2 4.8 0.48 0.61 0.61 94 1013.8
20260502213555 22 30 1.6 11.3 0.43 0.58 0.58 93 1013.7
20260502213053 22 313 3.2 8.0 3.00 0.53 0.53 92 1013.6
20260502212552 23 34 1.6 9.7 2.87 0.48 0.48 90 1013.8
20260502212049 26 266 11.3 16.1 0.00 0.00 0.00 84 1014.0
20260502211544 26 29 3.2 4.8 0.00 0.00 0.00 87 1013.0
20260502211042 26 311 4.8 4.8 0.00 0.00 0.00 87 1012.8
20260502210539 27 325 1.6 4.8 0.00 0.00 0.00 86 1012.6
20260502210036 27 44 3.2 3.2 0.00 0.00 0.00 86 1012.7
20260502205532 27 30 0.0 3.2 0.00 0.00 0.00 85 1012.6
20260502205030 27 36 1.6 4.8 0.00 0.00 0.00 85 1012.7
20260502204526 27 356 1.6 3.2 0.00 0.00 0.00 85 1012.7
20260502204024 27 339 1.6 3.2 0.00 0.00 0.00 84 1012.8
20260502203521 27 238 1.6 4.8 0.00 0.00 0.00 84 1012.9
20260502203018 27 43 0.0 3.2 0.00 0.00 0.00 83 1012.7
20260502202514 27 308 1.6 3.2 0.00 0.00 0.00 83 1012.6
20260502202013 27 358 0.0 3.2 0.00 0.00 0.00 84 1012.7
20260502201508 27 17 1.6 4.8 0.00 0.00 0.00 83 1012.7
20260502201005 28 261 3.2 4.8 0.00 0.00 0.00 82 1012.8
20260502200501 28 28 1.6 3.2 0.00 0.00 0.00 81 1012.7
20260502195959 28 39 1.6 3.2 0.00 0.00 0.00 80 1012.7
20260502195456 28 15 3.2 4.8 0.00 0.00 0.00 80 1012.9
20260502194952 28 269 3.2 4.8 0.00 0.00 0.00 79 1012.7
20260502194449 28 236 3.2 4.8 0.00 0.00 0.00 79 1012.9
20260502193944 28 32 1.6 3.2 0.00 0.00 0.00 80 1013.0
20260502193442 29 273 1.6 4.8 0.00 0.00 0.00 78 1012.9
20260502192938 29 29 0.0 3.2 0.00 0.00 0.00 79 1013.1
20260502192435 29 23 1.6 4.8 0.00 0.00 0.00 78 1013.3
20260502191931 30 6 1.6 8.0 0.00 0.00 0.00 76 1013.0
20260502191429 30 38 1.6 3.2 0.00 0.00 0.00 76 1013.1
20260502190927 30 22 1.6 4.8 0.00 0.00 0.00 75 1013.4
20260502190424 30 18 1.6 9.7 0.00 0.00 0.00 76 1013.4
20260502185920 30 341 3.2 3.2 0.00 0.00 0.00 75 1013.4
20260502185415 30 32 1.6 3.2 0.00 0.00 0.00 74 1013.5
20260502184913 30 2 0.0 3.2 0.00 0.00 0.00 75 1013.2
20260502184408 30 32 0.0 8.0 0.00 0.00 0.00 76 1013.5
20260502183905 30 297 1.6 4.8 0.00 0.00 0.00 74 1013.7
20260502183401 30 20 1.6 3.2 0.00 0.00 0.00 74 1013.7
20260502182856 30 8 1.6 4.8 0.00 0.00 0.00 75 1013.6
20260502182352 31 311 3.2 8.0 0.00 0.00 0.00 73 1013.7
20260502181848 30 35 0.0 3.2 0.00 0.00 0.00 77 1013.9
20260502181347 30 299 3.2 4.8 0.00 0.00 0.00 77 1014.1
20260502180845 30 292 3.2 8.0 0.00 0.00 0.00 77 1014.0
20260502180342 30 314 1.6 4.8 0.00 0.00 0.00 76 1014.0
20260502170301 29 28 3.2 8.0 0.00 0.00 0.00 79 1014.6
20260502164248 30 274 3.2 9.7 0.00 0.00 0.00 74 1014.5
20260502163744 31 28 1.6 4.8 0.00 0.00 0.00 74 1014.1
20260502163241 30 335 1.6 4.8 0.00 0.00 0.00 75 1014.2
20260502162738 30 34 3.2 8.0 0.00 0.00 0.00 76 1014.5
20260502162234 30 320 4.8 8.0 0.00 0.00 0.00 76 1014.3
20260502161732 30 16 1.6 8.0 0.00 0.00 0.00 76 1014.4
20260502161228 30 237 3.2 8.0 0.00 0.00 0.00 76 1014.2
20260502160726 30 24 3.2 8.0 0.00 0.00 0.00 77 1014.2
20260502160225 30 33 0.0 9.7 0.00 0.00 0.00 78 1014.2
20260502152149 29 186 6.4 8.0 0.00 0.00 0.00 79 1014.2
20260502151646 29 253 4.8 8.0 0.00 0.00 0.00 78 1014.0
20260502151143 28 264 4.8 9.7 0.00 0.00 0.00 79 1013.9
20260502150641 29 252 6.4 14.5 0.00 0.00 0.00 78 1014.0
20260502150137 28 239 3.2 9.7 0.00 0.00 0.00 79 1013.9
20260502130525 27 334 1.6 4.8 0.00 0.00 0.00 84 1013.1
20260502123509 26 316 3.2 4.8 0.00 0.00 0.00 88 1012.8
20260502123005 26 44 1.6 3.2 0.00 0.00 0.00 88 1012.7
20260502122501 26 43 1.6 3.2 0.00 0.00 0.00 89 1012.6
20260502121959 26 248 3.2 4.8 0.00 0.00 0.00 89 1012.8
20260502121456 26 31 1.6 4.8 0.00 0.00 0.00 90 1012.3
20260502120954 26 33 3.2 4.8 0.00 0.00 0.00 90 1012.7
20260502120450 25 36 0.0 4.8 0.00 0.00 0.00 91 1012.6
20260502115444 25 28 0.0 4.8 0.00 0.00 0.00 91 1012.5
20260502114940 25 268 3.2 4.8 0.00 0.00 0.00 91 1012.4
20260502114437 25 4 0.0 1.6 0.00 0.00 0.00 91 1012.2
20260502113935 25 33 3.2 3.2 0.00 0.00 0.00 91 1012.2
20260502113432 25 168 3.2 8.0 0.00 0.00 0.00 91 1012.5
20260502112931 25 330 1.6 1.6 0.00 0.00 0.00 91 1012.3
20260502112428 25 356 3.2 3.2 0.00 0.00 0.00 91 1012.5
20260502111925 25 288 1.6 3.2 0.00 0.00 0.00 91 1012.6
20260502111422 25 287 3.2 8.0 0.00 0.00 0.00 91 1012.5
20260502110919 25 14 0.0 3.2 0.00 0.00 0.00 91 1012.5
20260502110417 24 297 3.2 3.2 0.00 0.00 0.00 91 1012.4
20260502105914 24 28 0.0 1.6 0.00 0.00 0.00 91 1012.5
20260502105411 24 4 1.6 8.0 0.00 0.00 0.00 91 1012.3
20260502104909 24 33 0.0 4.8 0.00 0.00 0.00 91 1012.3
20260502104406 24 59 1.6 3.2 0.00 0.00 0.00 91 1012.4
20260502103904 24 11 1.6 4.8 0.00 0.00 0.00 91 1012.4
20260502103401 24 22 1.6 3.2 0.00 0.00 0.00 91 1012.2
20260502102858 24 66 3.2 4.8 0.00 0.00 0.00 91 1012.2
20260502102355 24 29 0.0 4.8 0.00 0.00 0.00 90 1012.3
20260502101852 24 35 0.0 3.2 0.00 0.00 0.00 90 1012.4
20260502101350 24 15 1.6 3.2 0.00 0.00 0.00 90 1012.5
20260502100848 24 51 1.6 1.6 0.00 0.00 0.00 89 1012.4
20260502100347 23 48 0.0 4.8 0.00 0.00 0.00 89 1012.5
20260502091321 23 43 0.0 1.6 0.00 0.00 0.00 88 1012.6
20260502090819 23 25 0.0 1.6 0.00 0.00 0.00 88 1012.8
20260502090315 23 45 0.0 1.6 0.00 0.00 0.00 87 1012.8
20260502071210 22 38 0.0 0.0 0.00 0.00 0.00 88 1013.2
20260502070709 22 40 0.0 0.0 0.00 0.00 0.00 87 1013.1
20260502070206 22 39 0.0 0.0 0.00 0.00 0.00 87 1012.8
20260502065704 22 41 0.0 0.0 0.00 0.00 0.00 86 1013.1
20260502065201 22 41 0.0 0.0 0.00 0.00 0.00 86 1012.9
20260502064700 22 46 0.0 0.0 0.00 0.00 0.00 86 1013.2
20260502064156 23 43 0.0 0.0 0.00 0.00 0.00 86 1013.1
20260502063655 23 49 0.0 0.0 0.00 0.00 0.00 86 1013.1
20260502063152 23 44 0.0 1.6 0.00 0.00 0.00 85 1013.3
20260502062649 23 46 0.0 0.0 0.00 0.00 0.00 85 1013.2
20260502062147 22 48 0.0 0.0 0.00 0.00 0.00 86 1013.1
20260502061645 22 45 0.0 0.0 0.00 0.00 0.00 86 1013.3
20260502061142 22 51 0.0 0.0 0.00 0.00 0.00 87 1013.3
20260502060642 22 42 0.0 1.6 0.00 0.00 0.00 87 1013.3
20260502060139 22 40 0.0 1.6 0.00 0.00 0.00 88 1013.3
20260502055637 22 34 0.0 0.0 0.00 0.00 0.00 89 1013.5
20260502055135 22 43 0.0 0.0 0.00 0.00 0.00 89 1013.4
20260502054634 22 40 0.0 0.0 0.00 0.00 0.00 89 1013.5
20260502054130 22 43 0.0 0.0 0.00 0.00 0.00 89 1013.4
20260502053628 22 42 0.0 0.0 0.00 0.00 0.00 89 1013.6